Time,TemperatureF,DewpointF,PressureIn,WindDirection,WindDirectionDegrees,WindSpeedMPH,WindSpeedGustMPH,Humidity,HourlyPrecipIn,Conditions,Clouds,dailyrainin,SoftwareType,DateUTC
2013-01-04 00:00:00,34.1,32.8,30.17,SSE,158,0.0,0.0,95,0.02,,,0.00,WUHU216HW,2013-01-04 08:00:00,
2013-01-04 00:05:00,34.1,33.0,30.17,SSE,158,0.0,0.0,96,0.02,,,0.00,WUHU216HW,2013-01-04 08:05:00,
2013-01-04 00:10:00,34.1,33.0,30.17,SSE,158,0.0,0.0,96,0.02,,,0.00,WUHU216HW,2013-01-04 08:10:00,
2013-01-04 00:15:00,34.1,33.0,30.17,SSE,158,0.0,0.0,96,0.02,,,0.00,WUHU216HW,2013-01-04 08:15:00,
2013-01-04 00:20:00,34.5,33.4,30.17,SSW,203,0.0,6.7,96,0.02,,,0.00,WUHU216HW,2013-01-04 08:20:00,
2013-01-04 00:25:00,34.7,33.6,30.17,SSW,203,0.0,6.7,96,0.02,,,0.00,WUHU216HW,2013-01-04 08:25:00,
2013-01-04 00:31:00,34.7,33.6,30.16,SSW,203,0.0,0.0,96,0.02,,,0.00,WUHU216HW,2013-01-04 08:31:00,
2013-01-04 00:36:00,34.7,33.6,30.17,SSW,203,0.0,0.0,96,0.02,,,0.00,WUHU216HW,2013-01-04 08:36:00,
2013-01-04 00:41:00,35.0,33.9,30.17,South,180,0.0,0.0,96,0.02,,,0.00,WUHU216HW,2013-01-04 08:41:00,
2013-01-04 00:46:00,35.0,33.9,30.17,North,0,0.0,0.0,96,0.00,,,0.00,WUHU216HW,2013-01-04 08:46:00,
2013-01-04 00:51:00,35.0,33.9,30.17,ENE,68,0.0,0.0,96,0.00,,,0.00,WUHU216HW,2013-01-04 08:51:00,
2013-01-04 00:56:00,35.2,34.1,30.17,ENE,68,0.0,0.0,96,0.00,,,0.00,WUHU216HW,2013-01-04 08:56:00,
2013-01-04 01:01:00,35.2,34.1,30.17,ENE,68,0.0,0.0,96,0.00,,,0.00,WUHU216HW,2013-01-04 09:01:00,
2013-01-04 01:06:00,35.4,34.3,30.16,ENE,68,0.0,0.0,96,0.00,,,0.00,WUHU216HW,2013-01-04 09:06:00,
2013-01-04 01:11:00,35.4,34.3,30.18,ENE,68,0.0,0.0,96,0.00,,,0.00,WUHU216HW,2013-01-04 09:11:00,
2013-01-04 01:17:00,35.4,34.3,30.17,North,0,0.0,0.0,96,0.00,,,0.00,WUHU216HW,2013-01-04 09:17:00,
2013-01-04 01:22:00,35.4,34.3,30.17,North,0,0.0,0.0,96,0.00,,,0.00,WUHU216HW,2013-01-04 09:22:00,
2013-01-04 01:27:00,35.6,34.5,30.17,North,0,0.0,0.0,96,0.00,,,0.00,WUHU216HW,2013-01-04 09:27:00,
2013-01-04 01:32:00,35.6,34.8,30.18,NE,45,0.0,0.0,97,0.00,,,0.00,WUHU216HW,2013-01-04 09:32:00,
2013-01-04 01:37:00,35.8,35.0,30.18,NE,45,0.0,0.0,97,0.00,,,0.00,WUHU216HW,2013-01-04 09:37:00,
2013-01-04 01:42:00,35.8,35.0,30.18,SE,135,0.0,0.0,97,0.00,,,0.00,WUHU216HW,2013-01-04 09:42:00,
2013-01-04 01:48:00,35.8,35.0,30.18,SE,135,0.0,0.0,97,0.00,,,0.00,WUHU216HW,2013-01-04 09:48:00,
2013-01-04 01:53:00,35.9,35.1,30.18,ENE,68,0.0,0.0,97,0.00,,,0.00,WUHU216HW,2013-01-04 09:53:00,
2013-01-04 01:58:00,35.9,35.1,30.18,South,180,6.7,7.1,97,0.00,,,0.00,WUHU216HW,2013-01-04 09:58:00,
2013-01-04 02:04:00,36.3,35.5,30.18,SSE,158,1.2,7.1,97,0.00,,,0.00,WUHU216HW,2013-01-04 10:04:00,
2013-01-04 02:09:00,36.5,35.7,30.19,SE,135,0.0,5.3,97,0.00,,,0.00,WUHU216HW,2013-01-04 10:09:00,
2013-01-04 02:14:00,36.5,35.7,30.19,South,180,3.8,6.0,97,0.00,,,0.00,WUHU216HW,2013-01-04 10:14:00,
2013-01-04 02:19:00,36.7,35.8,30.19,SSE,158,2.1,6.0,97,0.00,,,0.00,WUHU216HW,2013-01-04 10:19:00,
2013-01-04 02:24:00,36.7,35.8,30.19,South,180,2.5,6.2,97,0.00,,,0.00,WUHU216HW,2013-01-04 10:24:00,
2013-01-04 02:29:00,36.8,35.9,30.19,SE,135,1.4,6.2,97,0.00,,,0.00,WUHU216HW,2013-01-04 10:29:00,
2013-01-04 02:34:00,36.9,36.1,30.20,SSE,158,5.9,6.2,97,0.00,,,0.00,WUHU216HW,2013-01-04 10:34:00,
2013-01-04 02:39:00,37.1,36.3,30.20,ESE,113,3.6,9.1,97,0.00,,,0.00,WUHU216HW,2013-01-04 10:39:00,
2013-01-04 02:44:00,37.1,36.3,30.20,SSE,158,0.0,9.1,97,0.00,,,0.00,WUHU216HW,2013-01-04 10:44:00,
2013-01-04 02:49:00,37.3,36.5,30.20,SE,135,1.0,6.0,97,0.00,,,0.00,WUHU216HW,2013-01-04 10:49:00,
2013-01-04 02:54:00,37.5,37.0,30.20,SE,135,6.1,10.7,98,0.00,,,0.00,WUHU216HW,2013-01-04 10:54:00,
2013-01-04 02:59:00,37.6,37.1,30.20,SSE,158,8.3,10.7,98,0.00,,,0.00,WUHU216HW,2013-01-04 10:59:00,
2013-01-04 03:04:00,37.6,37.1,30.20,South,180,10.4,10.9,98,0.00,,,0.00,WUHU216HW,2013-01-04 11:04:00,
2013-01-04 03:09:00,38.0,37.5,30.20,SSE,158,4.2,11.4,98,0.00,,,0.00,WUHU216HW,2013-01-04 11:09:00,
2013-01-04 03:14:00,38.0,37.5,30.20,SE,135,7.6,11.4,98,0.00,,,0.00,WUHU216HW,2013-01-04 11:14:00,
2013-01-04 03:19:00,38.2,37.7,30.20,South,180,4.8,10.5,98,0.00,,,0.00,WUHU216HW,2013-01-04 11:19:00,
2013-01-04 03:24:00,38.2,37.7,30.20,SSE,158,11.9,12.5,98,0.00,,,0.00,WUHU216HW,2013-01-04 11:24:00,
2013-01-04 03:29:00,38.2,37.7,30.20,SSE,158,2.9,12.5,98,0.00,,,0.00,WUHU216HW,2013-01-04 11:29:00,
2013-01-04 03:34:00,38.2,37.7,30.20,ESE,113,3.6,9.3,98,0.00,,,0.00,WUHU216HW,2013-01-04 11:34:00,
2013-01-04 03:39:00,38.2,37.7,30.20,South,180,8.1,8.5,98,0.00,,,0.00,WUHU216HW,2013-01-04 11:39:00,
2013-01-04 03:44:00,38.5,38.0,30.21,SSE,158,10.4,10.9,98,0.00,,,0.00,WUHU216HW,2013-01-04 11:44:00,
2013-01-04 03:49:00,38.5,38.0,30.21,SSE,158,6.9,10.9,98,0.00,,,0.00,WUHU216HW,2013-01-04 11:49:00,
2013-01-04 03:54:00,38.5,38.0,30.21,South,180,5.0,8.9,98,0.00,,,0.00,WUHU216HW,2013-01-04 11:54:00,
2013-01-04 03:59:00,38.5,38.0,30.21,SSE,158,5.0,5.3,98,0.00,,,0.00,WUHU216HW,2013-01-04 11:59:00,
2013-01-04 04:04:00,38.5,38.0,30.20,SSE,158,3.1,8.2,98,0.00,,,0.00,WUHU216HW,2013-01-04 12:04:00,
2013-01-04 04:09:00,38.5,38.0,30.21,South,180,3.3,8.2,98,0.00,,,0.00,WUHU216HW,2013-01-04 12:09:00,
2013-01-04 04:15:00,38.5,38.0,30.21,ENE,68,1.6,7.1,98,0.00,,,0.00,WUHU216HW,2013-01-04 12:15:00,
2013-01-04 04:20:00,38.5,38.0,30.21,South,180,0.6,8.7,98,0.00,,,0.00,WUHU216HW,2013-01-04 12:20:00,
2013-01-04 04:25:00,38.5,38.0,30.21,ESE,113,4.2,8.7,98,0.00,,,0.00,WUHU216HW,2013-01-04 12:25:00,
2013-01-04 04:30:00,38.5,38.0,30.22,SSE,158,1.9,4.4,98,0.00,,,0.00,WUHU216HW,2013-01-04 12:30:00,
2013-01-04 04:35:00,38.5,38.0,30.21,SSW,203,4.7,8.0,98,0.00,,,0.00,WUHU216HW,2013-01-04 12:35:00,
2013-01-04 04:40:00,38.5,38.0,30.22,SSE,158,0.0,8.0,98,0.00,,,0.00,WUHU216HW,2013-01-04 12:40:00,
2013-01-04 04:45:00,38.7,38.2,30.23,South,180,3.6,4.4,98,0.00,,,0.00,WUHU216HW,2013-01-04 12:45:00,
2013-01-04 04:50:00,38.7,38.2,30.22,SSE,158,0.0,6.4,98,0.00,,,0.00,WUHU216HW,2013-01-04 12:50:00,
2013-01-04 04:55:00,38.7,38.2,30.22,SSW,203,0.0,6.4,98,0.00,,,0.00,WUHU216HW,2013-01-04 12:55:00,
2013-01-04 05:00:00,38.7,38.2,30.22,SE,135,2.3,7.3,98,0.00,,,0.00,WUHU216HW,2013-01-04 13:00:00,
2013-01-04 05:05:00,38.7,38.2,30.23,SSE,158,4.7,8.5,98,0.00,,,0.00,WUHU216HW,2013-01-04 13:05:00,
2013-01-04 05:10:00,38.9,38.4,30.23,SE,135,7.8,8.5,98,0.00,,,0.00,WUHU216HW,2013-01-04 13:10:00,
2013-01-04 05:15:00,38.9,38.4,30.23,South,180,2.8,10.5,98,0.00,,,0.00,WUHU216HW,2013-01-04 13:15:00,
2013-01-04 05:20:00,38.9,38.4,30.23,South,180,4.2,10.5,98,0.00,,,0.00,WUHU216HW,2013-01-04 13:20:00,
2013-01-04 05:25:00,38.9,38.4,30.23,SE,135,8.6,9.1,98,0.00,,,0.00,WUHU216HW,2013-01-04 13:25:00,
2013-01-04 05:30:00,38.9,38.4,30.23,South,180,6.4,9.6,98,0.00,,,0.00,WUHU216HW,2013-01-04 13:30:00,
2013-01-04 05:36:00,38.9,38.4,30.23,SSE,158,6.4,9.6,98,0.00,,,0.00,WUHU216HW,2013-01-04 13:36:00,
2013-01-04 05:41:00,38.9,38.4,30.23,SSE,158,9.3,9.8,98,0.00,,,0.00,WUHU216HW,2013-01-04 13:41:00,
2013-01-04 05:46:00,38.9,38.4,30.23,SSE,158,6.6,9.8,98,0.00,,,0.00,WUHU216HW,2013-01-04 13:46:00,
2013-01-04 05:51:00,38.9,38.4,30.23,SSW,203,0.8,7.1,98,0.00,,,0.00,WUHU216HW,2013-01-04 13:51:00,
2013-01-04 05:56:00,38.9,38.4,30.23,SE,135,0.0,4.6,98,0.00,,,0.00,WUHU216HW,2013-01-04 13:56:00,
2013-01-04 06:01:00,38.9,38.4,30.24,SSE,158,3.6,3.8,98,0.00,,,0.00,WUHU216HW,2013-01-04 14:01:00,
2013-01-04 06:06:00,39.1,38.6,30.24,SSE,158,0.0,4.9,98,0.00,,,0.00,WUHU216HW,2013-01-04 14:06:00,
2013-01-04 06:11:00,39.1,38.6,30.24,ESE,113,0.0,4.9,98,0.00,,,0.00,WUHU216HW,2013-01-04 14:11:00,
2013-01-04 06:16:00,39.1,38.6,30.24,SSE,158,4.8,5.1,98,0.00,,,0.00,WUHU216HW,2013-01-04 14:16:00,
2013-01-04 06:22:00,39.1,38.6,30.24,SSE,158,0.0,8.7,98,0.00,,,0.00,WUHU216HW,2013-01-04 14:22:00,
2013-01-04 06:27:00,39.1,38.6,30.24,SSW,203,3.3,8.7,98,0.00,,,0.00,WUHU216HW,2013-01-04 14:27:00,
2013-01-04 06:32:00,39.1,38.6,30.25,South,180,2.1,7.3,98,0.00,,,0.00,WUHU216HW,2013-01-04 14:32:00,
2013-01-04 06:37:00,39.1,38.6,30.24,NE,45,6.7,7.1,98,0.00,,,0.00,WUHU216HW,2013-01-04 14:37:00,
2013-01-04 06:42:00,39.1,38.6,30.25,SE,135,2.8,7.1,98,0.00,,,0.00,WUHU216HW,2013-01-04 14:42:00,
2013-01-04 06:47:00,39.1,38.6,30.25,SSW,203,0.0,7.1,98,0.00,,,0.00,WUHU216HW,2013-01-04 14:47:00,
2013-01-04 06:52:00,39.1,38.6,30.25,SSW,203,1.4,6.0,98,0.00,,,0.00,WUHU216HW,2013-01-04 14:52:00,
2013-01-04 06:57:00,39.1,38.6,30.25,South,180,6.7,7.1,98,0.00,,,0.00,WUHU216HW,2013-01-04 14:57:00,
2013-01-04 07:02:00,39.1,38.6,30.26,SSE,158,0.0,7.1,98,0.00,,,0.00,WUHU216HW,2013-01-04 15:02:00,
2013-01-04 07:07:00,39.3,38.8,30.25,SSE,158,1.4,6.4,98,0.00,,,0.00,WUHU216HW,2013-01-04 15:07:00,
2013-01-04 07:12:00,39.3,38.8,30.25,North,0,0.0,8.9,98,0.00,,,0.00,WUHU216HW,2013-01-04 15:12:00,
2013-01-04 07:17:00,39.3,38.8,30.25,SSE,158,2.1,8.9,98,0.00,,,0.00,WUHU216HW,2013-01-04 15:17:00,
2013-01-04 07:22:00,39.3,38.8,30.26,SSE,158,2.9,7.3,98,0.00,,,0.00,WUHU216HW,2013-01-04 15:22:00,
2013-01-04 07:27:00,39.3,38.8,30.25,SE,135,1.9,6.9,98,0.00,,,0.00,WUHU216HW,2013-01-04 15:27:00,
2013-01-04 07:32:00,39.3,38.8,30.25,South,180,3.1,8.7,98,0.00,,,0.00,WUHU216HW,2013-01-04 15:32:00,
2013-01-04 07:37:00,39.3,38.8,30.25,South,180,6.6,8.7,98,0.00,,,0.00,WUHU216HW,2013-01-04 15:37:00,
2013-01-04 07:42:00,39.3,38.8,30.25,SE,135,1.2,6.9,98,0.00,,,0.00,WUHU216HW,2013-01-04 15:42:00,
2013-01-04 07:47:00,39.4,38.9,30.25,SSW,203,4.0,4.2,98,0.00,,,0.00,WUHU216HW,2013-01-04 15:47:00,
2013-01-04 07:52:00,39.4,38.9,30.25,ESE,113,1.2,7.1,98,0.00,,,0.00,WUHU216HW,2013-01-04 15:52:00,
2013-01-04 07:57:00,39.4,38.9,30.26,South,180,4.7,7.1,98,0.00,,,0.00,WUHU216HW,2013-01-04 15:57:00,
2013-01-04 08:02:00,39.4,38.9,30.26,SE,135,4.0,6.9,98,0.00,,,0.00,WUHU216HW,2013-01-04 16:02:00,
2013-01-04 08:08:00,39.4,38.9,30.26,SE,135,4.2,4.4,98,0.00,,,0.00,WUHU216HW,2013-01-04 16:08:00,
2013-01-04 08:13:00,39.6,39.1,30.26,SSE,158,3.8,9.1,98,0.00,,,0.00,WUHU216HW,2013-01-04 16:13:00,
2013-01-04 08:18:00,39.6,39.1,30.27,SSE,158,4.0,9.1,98,0.00,,,0.00,WUHU216HW,2013-01-04 16:18:00,
2013-01-04 08:23:00,39.6,39.1,30.27,SSW,203,6.1,9.3,98,0.00,,,0.00,WUHU216HW,2013-01-04 16:23:00,
2013-01-04 08:28:00,39.6,39.1,30.27,South,180,3.6,9.3,98,0.00,,,0.00,WUHU216HW,2013-01-04 16:28:00,
2013-01-04 08:33:00,39.6,39.1,30.27,SSE,158,0.6,5.5,98,0.00,,,0.00,WUHU216HW,2013-01-04 16:33:00,
2013-01-04 08:38:00,39.8,39.2,30.27,South,180,3.1,7.1,98,0.00,,,0.00,WUHU216HW,2013-01-04 16:38:00,
2013-01-04 08:43:00,39.8,39.2,30.28,South,180,6.9,8.9,98,0.00,,,0.00,WUHU216HW,2013-01-04 16:43:00,
2013-01-04 08:48:00,39.8,39.2,30.28,South,180,5.7,8.9,98,0.00,,,0.00,WUHU216HW,2013-01-04 16:48:00,
2013-01-04 08:53:00,39.7,39.2,30.28,South,180,4.7,6.0,98,0.00,,,0.00,WUHU216HW,2013-01-04 16:53:00,
2013-01-04 08:58:00,39.7,39.2,30.28,SSE,158,4.7,4.9,98,0.00,,,0.00,WUHU216HW,2013-01-04 16:58:00,
2013-01-04 09:03:00,39.9,39.3,30.28,SE,135,3.6,7.1,98,0.00,,,0.00,WUHU216HW,2013-01-04 17:03:00,
2013-01-04 09:08:00,39.9,39.3,30.28,SSW,203,4.8,7.1,98,0.00,,,0.00,WUHU216HW,2013-01-04 17:08:00,
2013-01-04 09:13:00,40.0,39.5,30.28,South,180,5.9,6.4,98,0.00,,,0.00,WUHU216HW,2013-01-04 17:13:00,
2013-01-04 09:18:00,40.0,39.5,30.28,SSE,158,1.9,7.3,98,0.00,,,0.00,WUHU216HW,2013-01-04 17:18:00,
2013-01-04 09:23:00,40.1,39.5,30.29,South,180,8.1,8.5,98,0.00,,,0.00,WUHU216HW,2013-01-04 17:23:00,
2013-01-04 09:28:00,40.0,39.5,30.28,South,180,3.1,8.5,98,0.00,,,0.00,WUHU216HW,2013-01-04 17:28:00,
2013-01-04 09:33:00,40.2,39.7,30.28,SSW,203,3.1,6.7,98,0.00,,,0.00,WUHU216HW,2013-01-04 17:33:00,
2013-01-04 09:39:00,40.4,39.8,30.29,SE,135,5.7,6.7,98,0.00,,,0.00,WUHU216HW,2013-01-04 17:39:00,
2013-01-04 09:44:00,40.6,40.0,30.29,SSE,158,5.7,9.6,98,0.00,,,0.00,WUHU216HW,2013-01-04 17:44:00,
2013-01-04 09:49:00,40.5,40.0,30.30,South,180,2.5,9.6,98,0.00,,,0.00,WUHU216HW,2013-01-04 17:49:00,
2013-01-04 09:54:00,40.7,40.2,30.30,SSE,158,2.5,9.6,98,0.00,,,0.00,WUHU216HW,2013-01-04 17:54:00,
2013-01-04 09:59:00,40.7,40.1,30.30,SSE,158,5.9,7.8,98,0.00,,,0.00,WUHU216HW,2013-01-04 17:59:00,
2013-01-04 10:04:00,40.8,40.2,30.29,SSE,158,2.8,7.8,98,0.00,,,0.00,WUHU216HW,2013-01-04 18:04:00,
2013-01-04 10:09:00,40.7,40.2,30.29,South,180,9.3,9.8,98,0.00,,,0.00,WUHU216HW,2013-01-04 18:09:00,
2013-01-04 10:14:00,40.7,40.2,30.30,SE,135,3.6,9.8,98,0.00,,,0.00,WUHU216HW,2013-01-04 18:14:00,
2013-01-04 10:19:00,40.7,40.1,30.30,North,0,0.0,9.1,98,0.00,,,0.00,WUHU216HW,2013-01-04 18:19:00,
2013-01-04 10:24:00,40.7,40.1,30.30,South,180,9.1,9.6,98,0.00,,,0.00,WUHU216HW,2013-01-04 18:24:00,
2013-01-04 10:29:00,40.6,40.1,30.29,South,180,10.4,10.9,98,0.00,,,0.00,WUHU216HW,2013-01-04 18:29:00,
2013-01-04 10:34:00,40.6,40.1,30.30,South,180,5.7,10.9,98,0.00,,,0.00,WUHU216HW,2013-01-04 18:34:00,
2013-01-04 10:39:00,40.6,40.0,30.30,SE,135,4.4,9.6,98,0.00,,,0.00,WUHU216HW,2013-01-04 18:39:00,
2013-01-04 10:44:00,41.0,40.1,30.30,SSE,158,5.5,6.2,97,0.00,,,0.00,WUHU216HW,2013-01-04 18:44:00,
2013-01-04 10:49:00,40.9,40.1,30.29,South,180,3.3,5.8,97,0.00,,,0.00,WUHU216HW,2013-01-04 18:49:00,
2013-01-04 10:54:00,40.9,40.1,30.30,SE,135,0.0,6.2,97,0.00,,,0.00,WUHU216HW,2013-01-04 18:54:00,
2013-01-04 10:59:00,41.1,40.3,30.29,South,180,3.8,6.4,97,0.00,,,0.00,WUHU216HW,2013-01-04 18:59:00,
2013-01-04 11:04:00,41.1,40.3,30.29,SSE,158,3.6,9.1,97,0.00,,,0.00,WUHU216HW,2013-01-04 19:04:00,
2013-01-04 11:09:00,41.1,40.2,30.29,South,180,3.6,9.1,97,0.00,,,0.00,WUHU216HW,2013-01-04 19:09:00,
2013-01-04 11:15:00,41.2,40.4,30.29,SSW,203,5.9,6.2,97,0.00,,,0.00,WUHU216HW,2013-01-04 19:15:00,
2013-01-04 11:20:00,41.3,40.5,30.29,SSE,158,2.9,6.2,97,0.00,,,0.00,WUHU216HW,2013-01-04 19:20:00,
2013-01-04 11:25:00,41.7,40.9,30.30,SSE,158,7.2,7.6,97,0.00,,,0.00,WUHU216HW,2013-01-04 19:25:00,
2013-01-04 11:30:00,41.7,40.8,30.29,SE,135,10.8,11.4,97,0.00,,,0.00,WUHU216HW,2013-01-04 19:30:00,
2013-01-04 11:35:00,41.7,40.6,30.29,SSE,158,8.1,11.4,96,0.00,,,0.00,WUHU216HW,2013-01-04 19:35:00,
2013-01-04 11:40:00,41.8,40.7,30.28,SSE,158,4.7,8.5,96,0.00,,,0.00,WUHU216HW,2013-01-04 19:40:00,
2013-01-04 11:45:00,41.8,40.7,30.29,SSE,158,6.6,10.9,96,0.00,,,0.00,WUHU216HW,2013-01-04 19:45:00,
2013-01-04 11:50:00,42.1,41.0,30.28,SSE,158,8.8,10.9,96,0.00,,,0.00,WUHU216HW,2013-01-04 19:50:00,
2013-01-04 11:55:00,42.3,41.2,30.28,SSE,158,4.0,9.8,96,0.00,,,0.00,WUHU216HW,2013-01-04 19:55:00,
2013-01-04 12:00:00,42.5,41.4,30.28,South,180,1.2,9.8,96,0.00,,,0.00,WUHU216HW,2013-01-04 20:00:00,
2013-01-04 12:05:00,42.6,41.5,30.28,SSE,158,2.5,4.9,96,0.00,,,0.00,WUHU216HW,2013-01-04 20:05:00,
2013-01-04 12:10:00,42.4,41.1,30.28,SSE,158,2.9,5.8,95,0.00,,,0.00,WUHU216HW,2013-01-04 20:10:00,
2013-01-04 12:15:00,42.4,41.0,30.28,SSW,203,4.8,6.4,95,0.00,,,0.00,WUHU216HW,2013-01-04 20:15:00,
2013-01-04 12:20:00,42.4,40.8,30.28,SE,135,2.3,6.0,94,0.00,,,0.00,WUHU216HW,2013-01-04 20:20:00,
2013-01-04 12:26:00,42.4,40.7,30.28,SE,135,6.9,9.6,94,0.00,,,0.00,WUHU216HW,2013-01-04 20:26:00,
2013-01-04 12:31:00,42.0,40.3,30.28,SSE,158,6.9,10.5,94,0.00,,,0.00,WUHU216HW,2013-01-04 20:31:00,
2013-01-04 12:36:00,42.0,40.3,30.28,SSW,203,4.0,10.5,94,0.00,,,0.00,WUHU216HW,2013-01-04 20:36:00,
2013-01-04 12:41:00,42.4,40.7,30.28,South,180,2.1,10.2,94,0.00,,,0.00,WUHU216HW,2013-01-04 20:41:00,
2013-01-04 12:46:00,42.6,40.9,30.28,South,180,5.2,10.2,94,0.00,,,0.00,WUHU216HW,2013-01-04 20:46:00,
2013-01-04 12:51:00,42.5,40.6,30.28,ESE,113,4.2,9.1,93,0.00,,,0.00,WUHU216HW,2013-01-04 20:51:00,
2013-01-04 12:56:00,42.7,40.8,30.27,SSE,158,3.6,9.1,93,0.00,,,0.00,WUHU216HW,2013-01-04 20:56:00,
2013-01-04 13:01:00,43.0,41.1,30.27,SSW,203,2.8,7.3,93,0.00,,,0.00,WUHU216HW,2013-01-04 21:01:00,
2013-01-04 13:06:00,43.0,40.8,30.27,SE,135,1.9,8.0,92,0.00,,,0.00,WUHU216HW,2013-01-04 21:06:00,
2013-01-04 13:11:00,43.2,41.0,30.27,SE,135,0.0,8.0,92,0.00,,,0.00,WUHU216HW,2013-01-04 21:11:00,
2013-01-04 13:16:00,43.2,41.0,30.27,SSE,158,0.8,6.2,92,0.00,,,0.00,WUHU216HW,2013-01-04 21:16:00,
2013-01-04 13:21:00,43.2,41.0,30.27,SE,135,0.0,4.4,92,0.00,,,0.00,WUHU216HW,2013-01-04 21:21:00,
2013-01-04 13:26:00,43.2,41.0,30.27,South,180,3.3,4.6,92,0.00,,,0.00,WUHU216HW,2013-01-04 21:26:00,
2013-01-04 13:31:00,43.2,41.0,30.27,South,180,2.8,4.6,92,0.00,,,0.00,WUHU216HW,2013-01-04 21:31:00,
2013-01-04 13:36:00,43.4,41.2,30.27,South,180,0.0,3.8,92,0.00,,,0.00,WUHU216HW,2013-01-04 21:36:00,
2013-01-04 13:41:00,43.4,41.2,30.27,ESE,113,0.6,4.4,92,0.00,,,0.00,WUHU216HW,2013-01-04 21:41:00,
2013-01-04 13:46:00,43.4,40.9,30.27,SE,135,2.8,5.3,91,0.00,,,0.00,WUHU216HW,2013-01-04 21:46:00,
2013-01-04 13:51:00,43.2,40.4,30.27,SSE,158,2.9,5.3,90,0.00,,,0.00,WUHU216HW,2013-01-04 21:51:00,
2013-01-04 13:56:00,43.7,40.9,30.26,SE,135,4.4,4.6,90,0.00,,,0.00,WUHU216HW,2013-01-04 21:56:00,
2013-01-04 14:02:00,44.3,41.8,30.26,ENE,68,0.0,4.6,91,0.00,,,0.00,WUHU216HW,2013-01-04 22:02:00,
2013-01-04 14:07:00,44.3,41.5,30.26,SE,135,2.8,3.3,90,0.00,,,0.00,WUHU216HW,2013-01-04 22:07:00,
2013-01-04 14:12:00,44.1,41.0,30.26,SE,135,4.4,5.8,89,0.00,,,0.00,WUHU216HW,2013-01-04 22:12:00,
2013-01-04 14:17:00,44.1,40.7,30.26,SSE,158,2.1,5.8,88,0.00,,,0.00,WUHU216HW,2013-01-04 22:17:00,
2013-01-04 14:22:00,43.7,40.6,30.26,SSW,203,0.0,3.5,89,0.00,,,0.00,WUHU216HW,2013-01-04 22:22:00,
2013-01-04 14:27:00,43.7,40.6,30.26,SSW,203,0.0,2.9,89,0.00,,,0.00,WUHU216HW,2013-01-04 22:27:00,
2013-01-04 14:32:00,43.7,40.7,30.26,SSE,158,2.5,2.6,89,0.00,,,0.00,WUHU216HW,2013-01-04 22:32:00,
2013-01-04 14:37:00,43.7,40.9,30.26,SSE,158,2.1,3.8,90,0.00,,,0.00,WUHU216HW,2013-01-04 22:37:00,
2013-01-04 14:42:00,44.1,41.3,30.26,SSE,158,1.2,3.8,90,0.00,,,0.00,WUHU216HW,2013-01-04 22:42:00,
2013-01-04 14:47:00,44.1,41.3,30.26,South,180,0.6,1.7,90,0.00,,,0.00,WUHU216HW,2013-01-04 22:47:00,
2013-01-04 14:52:00,44.3,41.6,30.26,South,180,2.3,2.4,90,0.00,,,0.00,WUHU216HW,2013-01-04 22:52:00,
2013-01-04 14:57:00,44.4,41.3,30.26,South,180,0.0,2.9,89,0.00,,,0.00,WUHU216HW,2013-01-04 22:57:00,
2013-01-04 15:02:00,44.4,41.3,30.26,SSE,158,1.4,2.9,89,0.00,,,0.00,WUHU216HW,2013-01-04 23:02:00,
2013-01-04 15:08:00,44.7,41.6,30.25,SSE,158,1.4,2.9,89,0.00,,,0.00,WUHU216HW,2013-01-04 23:08:00,
2013-01-04 15:13:00,44.7,41.6,30.26,SSW,203,0.0,3.1,89,0.00,,,0.00,WUHU216HW,2013-01-04 23:13:00,
2013-01-04 15:18:00,44.7,41.6,30.26,SSW,203,0.0,3.1,89,0.00,,,0.00,WUHU216HW,2013-01-04 23:18:00,
2013-01-04 15:23:00,44.7,41.3,30.26,SSW,203,0.0,0.4,88,0.00,,,0.00,WUHU216HW,2013-01-04 23:23:00,
2013-01-04 15:28:00,44.7,41.3,30.25,SSW,203,0.0,0.0,88,0.00,,,0.00,WUHU216HW,2013-01-04 23:28:00,
2013-01-04 15:33:00,44.9,41.6,30.25,SSW,203,0.0,0.0,88,0.00,,,0.00,WUHU216HW,2013-01-04 23:33:00,
2013-01-04 15:38:00,45.1,41.8,30.26,SSW,203,0.0,0.0,88,0.00,,,0.00,WUHU216HW,2013-01-04 23:38:00,
2013-01-04 15:43:00,45.2,41.8,30.26,SSW,203,0.0,0.0,88,0.00,,,0.00,WUHU216HW,2013-01-04 23:43:00,
2013-01-04 15:48:00,45.2,41.8,30.26,SSW,203,1.2,1.3,88,0.00,,,0.00,WUHU216HW,2013-01-04 23:48:00,
2013-01-04 15:53:00,44.8,41.4,30.27,SSW,203,0.0,2.9,88,0.00,,,0.00,WUHU216HW,2013-01-04 23:53:00,
2013-01-04 15:58:00,44.8,41.4,30.27,SSW,203,0.0,2.9,88,0.00,,,0.00,WUHU216HW,2013-01-04 23:58:00,
2013-01-04 16:03:00,44.7,41.4,30.26,SSW,203,0.0,0.0,88,0.00,,,0.00,WUHU216HW,2013-01-05 00:03:00,
2013-01-04 16:08:00,44.6,41.2,30.26,SSW,203,0.0,0.0,88,0.00,,,0.00,WUHU216HW,2013-01-05 00:08:00,
2013-01-04 16:13:00,44.4,41.0,30.26,SSW,203,0.0,0.0,88,0.00,,,0.00,WUHU216HW,2013-01-05 00:13:00,
2013-01-04 16:18:00,44.0,40.9,30.25,SSW,203,0.0,0.0,89,0.00,,,0.00,WUHU216HW,2013-01-05 00:18:00,
2013-01-04 16:24:00,43.9,40.9,30.25,SSW,203,0.0,0.0,89,0.00,,,0.00,WUHU216HW,2013-01-05 00:24:00,
2013-01-04 16:29:00,43.7,41.0,30.25,SSW,203,0.0,0.0,90,0.00,,,0.00,WUHU216HW,2013-01-05 00:29:00,
2013-01-04 16:34:00,43.6,40.8,30.25,SSW,203,0.0,0.0,90,0.00,,,0.00,WUHU216HW,2013-01-05 00:34:00,
2013-01-04 16:39:00,43.4,40.6,30.24,SSW,203,0.0,0.0,90,0.00,,,0.00,WUHU216HW,2013-01-05 00:39:00,
2013-01-04 16:44:00,43.1,40.3,30.24,SSW,203,0.0,0.0,90,0.00,,,0.00,WUHU216HW,2013-01-05 00:44:00,
2013-01-04 16:49:00,42.8,40.3,30.24,SSW,203,0.0,0.0,91,0.00,,,0.00,WUHU216HW,2013-01-05 00:49:00,
2013-01-04 16:54:00,42.6,40.1,30.24,SSW,203,0.0,0.0,91,0.00,,,0.00,WUHU216HW,2013-01-05 00:54:00,
2013-01-04 16:59:00,42.4,40.2,30.24,SSW,203,0.0,0.0,92,0.00,,,0.00,WUHU216HW,2013-01-05 00:59:00,
2013-01-04 17:04:00,42.3,40.1,30.24,SSW,203,0.0,0.0,92,0.00,,,0.00,WUHU216HW,2013-01-05 01:04:00,
2013-01-04 17:09:00,42.2,40.0,30.23,SSW,203,0.0,0.0,92,0.00,,,0.00,WUHU216HW,2013-01-05 01:09:00,
2013-01-04 17:14:00,41.8,39.6,30.23,SSW,203,0.0,0.0,92,0.00,,,0.00,WUHU216HW,2013-01-05 01:14:00,
2013-01-04 17:19:00,41.6,39.4,30.23,SSW,203,0.0,0.0,92,0.00,,,0.00,WUHU216HW,2013-01-05 01:19:00,
2013-01-04 17:24:00,41.3,39.4,30.23,SSW,203,0.0,0.0,93,0.00,,,0.00,WUHU216HW,2013-01-05 01:24:00,
2013-01-04 17:29:00,41.4,39.4,30.23,SSW,203,0.0,0.0,93,0.00,,,0.00,WUHU216HW,2013-01-05 01:29:00,
2013-01-04 17:34:00,41.2,39.3,30.23,SSW,203,0.0,0.0,93,0.00,,,0.00,WUHU216HW,2013-01-05 01:34:00,
2013-01-04 17:39:00,40.8,38.9,30.22,SSW,203,0.0,0.0,93,0.00,,,0.00,WUHU216HW,2013-01-05 01:39:00,
2013-01-04 17:44:00,40.9,38.9,30.22,SSW,203,0.0,0.0,93,0.00,,,0.00,WUHU216HW,2013-01-05 01:44:00,
2013-01-04 17:49:00,40.8,39.1,30.22,SSW,203,0.0,0.0,94,0.00,,,0.00,WUHU216HW,2013-01-05 01:49:00,
2013-01-04 17:55:00,40.6,39.0,30.21,SSW,203,0.0,0.0,94,0.00,,,0.00,WUHU216HW,2013-01-05 01:55:00,
2013-01-04 18:00:00,40.4,38.8,30.21,SSW,203,0.0,0.0,94,0.00,,,0.00,WUHU216HW,2013-01-05 02:00:00,
2013-01-04 18:05:00,40.5,38.8,30.21,SSW,203,0.0,0.0,94,0.00,,,0.00,WUHU216HW,2013-01-05 02:05:00,
2013-01-04 18:10:00,40.3,38.7,30.22,SSW,203,0.0,0.0,94,0.00,,,0.00,WUHU216HW,2013-01-05 02:10:00,
2013-01-04 18:15:00,40.3,38.7,30.22,SSW,203,0.0,0.0,94,0.00,,,0.00,WUHU216HW,2013-01-05 02:15:00,
2013-01-04 18:20:00,40.2,38.5,30.21,SSW,203,0.0,0.0,94,0.00,,,0.00,WUHU216HW,2013-01-05 02:20:00,
2013-01-04 18:25:00,40.2,38.5,30.21,SSW,203,0.0,0.0,94,0.00,,,0.00,WUHU216HW,2013-01-05 02:25:00,
2013-01-04 18:30:00,40.2,38.6,30.22,SSW,203,0.0,0.0,94,0.00,,,0.00,WUHU216HW,2013-01-05 02:30:00,
2013-01-04 18:35:00,40.1,38.5,30.22,SSW,203,0.0,0.0,94,0.00,,,0.00,WUHU216HW,2013-01-05 02:35:00,
2013-01-04 18:40:00,40.0,38.6,30.21,SSW,203,0.0,0.0,95,0.00,,,0.00,WUHU216HW,2013-01-05 02:40:00,
2013-01-04 18:45:00,39.8,38.4,30.21,SSW,203,0.0,0.0,95,0.00,,,0.00,WUHU216HW,2013-01-05 02:45:00,
2013-01-04 18:51:00,39.6,38.2,30.21,SSW,203,0.0,0.0,95,0.00,,,0.00,WUHU216HW,2013-01-05 02:51:00,
2013-01-04 18:56:00,39.4,38.0,30.22,SSW,203,0.0,0.0,95,0.00,,,0.00,WUHU216HW,2013-01-05 02:56:00,
2013-01-04 19:01:00,39.4,38.0,30.21,SSW,203,0.0,0.0,95,0.00,,,0.00,WUHU216HW,2013-01-05 03:01:00,
2013-01-04 19:06:00,39.3,37.9,30.21,SSW,203,0.0,0.0,95,0.00,,,0.00,WUHU216HW,2013-01-05 03:06:00,
2013-01-04 19:11:00,39.1,37.7,30.21,SSW,203,0.0,0.0,95,0.00,,,0.00,WUHU216HW,2013-01-05 03:11:00,
2013-01-04 19:16:00,38.9,37.8,30.22,SSW,203,0.0,0.0,96,0.00,,,0.00,WUHU216HW,2013-01-05 03:16:00,
2013-01-04 19:21:00,38.7,37.4,30.21,SSW,203,0.0,0.0,95,0.00,,,0.00,WUHU216HW,2013-01-05 03:21:00,
2013-01-04 19:26:00,38.5,37.2,30.21,SSW,203,0.0,0.0,95,0.00,,,0.00,WUHU216HW,2013-01-05 03:26:00,
2013-01-04 19:31:00,38.5,37.2,30.21,SSW,203,0.0,0.0,95,0.00,,,0.00,WUHU216HW,2013-01-05 03:31:00,
2013-01-04 19:36:00,38.5,37.2,30.21,SSW,203,0.0,0.0,95,0.00,,,0.00,WUHU216HW,2013-01-05 03:36:00,
2013-01-04 19:42:00,38.5,37.4,30.21,SSW,203,0.0,0.0,96,0.00,,,0.00,WUHU216HW,2013-01-05 03:42:00,
2013-01-04 19:47:00,38.5,37.4,30.20,SSW,203,0.0,0.0,96,0.00,,,0.00,WUHU216HW,2013-01-05 03:47:00,
2013-01-04 19:52:00,38.7,37.6,30.21,SSW,203,0.0,0.0,96,0.00,,,0.00,WUHU216HW,2013-01-05 03:52:00,
2013-01-04 19:57:00,38.5,37.4,30.20,SSW,203,0.0,0.0,96,0.00,,,0.00,WUHU216HW,2013-01-05 03:57:00,
2013-01-04 20:02:00,38.7,37.6,30.19,SSW,203,0.0,0.0,96,0.00,,,0.00,WUHU216HW,2013-01-05 04:02:00,
2013-01-04 20:07:00,38.9,37.8,30.20,SSW,203,0.0,0.0,96,0.00,,,0.00,WUHU216HW,2013-01-05 04:07:00,
2013-01-04 20:12:00,38.9,37.8,30.20,SSW,203,0.0,0.0,96,0.00,,,0.00,WUHU216HW,2013-01-05 04:12:00,
2013-01-04 20:17:00,38.7,37.6,30.20,SSW,203,0.0,0.0,96,0.00,,,0.00,WUHU216HW,2013-01-05 04:17:00,
2013-01-04 20:22:00,38.7,37.6,30.19,SSW,203,0.0,0.0,96,0.00,,,0.00,WUHU216HW,2013-01-05 04:22:00,
2013-01-04 20:27:00,38.5,37.4,30.19,SSW,203,0.0,0.0,96,0.00,,,0.00,WUHU216HW,2013-01-05 04:27:00,
2013-01-04 20:32:00,38.7,37.6,30.20,SSW,203,0.0,0.0,96,0.00,,,0.00,WUHU216HW,2013-01-05 04:32:00,
2013-01-04 20:37:00,38.7,37.6,30.20,SSW,203,0.0,0.0,96,0.00,,,0.00,WUHU216HW,2013-01-05 04:37:00,
2013-01-04 20:42:00,38.9,38.1,30.20,SSW,203,0.0,0.0,97,0.00,,,0.00,WUHU216HW,2013-01-05 04:42:00,
2013-01-04 20:47:00,38.9,38.1,30.19,SSW,203,0.0,0.0,97,0.00,,,0.00,WUHU216HW,2013-01-05 04:47:00,
2013-01-04 20:53:00,38.9,38.1,30.19,SSW,203,0.0,0.0,97,0.00,,,0.00,WUHU216HW,2013-01-05 04:53:00,
2013-01-04 20:58:00,38.9,38.1,30.19,SSW,203,0.0,0.0,97,0.00,,,0.00,WUHU216HW,2013-01-05 04:58:00,
2013-01-04 21:00:00,38.9,38.1,30.19,SSW,203,0.0,0.0,97,0.00,,,0.00,WUHU216HW,2013-01-05 05:00:00,
2013-01-04 21:05:00,38.7,37.9,30.19,SSW,203,0.0,0.0,97,0.00,,,0.00,WUHU216HW,2013-01-05 05:05:00,
2013-01-04 21:11:00,38.9,38.1,30.19,SSW,203,0.0,0.0,97,0.00,,,0.00,WUHU216HW,2013-01-05 05:11:00,
2013-01-04 21:16:00,38.9,38.1,30.19,SSW,203,0.0,0.0,97,0.00,,,0.00,WUHU216HW,2013-01-05 05:16:00,
2013-01-04 21:21:00,38.9,38.1,30.18,SSW,203,0.0,0.0,97,0.00,,,0.00,WUHU216HW,2013-01-05 05:21:00,
2013-01-04 21:26:00,38.7,37.9,30.18,SSW,203,0.0,0.0,97,0.00,,,0.00,WUHU216HW,2013-01-05 05:26:00,
2013-01-04 21:31:00,38.7,37.9,30.19,SSW,203,0.0,0.0,97,0.00,,,0.00,WUHU216HW,2013-01-05 05:31:00,
2013-01-04 21:36:00,38.9,38.1,30.19,SSW,203,0.0,0.0,97,0.00,,,0.00,WUHU216HW,2013-01-05 05:36:00,
2013-01-04 21:41:00,38.9,38.1,30.19,SSW,203,0.0,0.0,97,0.00,,,0.00,WUHU216HW,2013-01-05 05:41:00,
2013-01-04 21:46:00,38.9,38.1,30.19,SSW,203,0.0,0.0,97,0.00,,,0.00,WUHU216HW,2013-01-05 05:46:00,
2013-01-04 21:51:00,38.9,38.1,30.19,SSW,203,0.0,0.0,97,0.00,,,0.00,WUHU216HW,2013-01-05 05:51:00,
2013-01-04 21:56:00,38.9,38.1,30.19,SSW,203,0.0,0.0,97,0.00,,,0.00,WUHU216HW,2013-01-05 05:56:00,
2013-01-04 22:01:00,38.9,38.1,30.18,SSW,203,0.0,0.0,97,0.00,,,0.00,WUHU216HW,2013-01-05 06:01:00,
2013-01-04 22:06:00,38.9,38.1,30.18,SSW,203,0.0,0.0,97,0.00,,,0.00,WUHU216HW,2013-01-05 06:06:00,
2013-01-04 22:11:00,38.7,37.9,30.18,SSW,203,0.0,0.0,97,0.00,,,0.00,WUHU216HW,2013-01-05 06:11:00,
2013-01-04 22:16:00,38.7,37.9,30.18,SSW,203,0.0,0.0,97,0.00,,,0.00,WUHU216HW,2013-01-05 06:16:00,
2013-01-04 22:21:00,38.7,37.9,30.18,SSW,203,0.0,0.0,97,0.00,,,0.00,WUHU216HW,2013-01-05 06:21:00,
2013-01-04 22:26:00,38.7,37.9,30.18,SSW,203,0.0,0.0,97,0.00,,,0.00,WUHU216HW,2013-01-05 06:26:00,
2013-01-04 22:32:00,38.7,37.9,30.19,SSW,203,0.0,0.0,97,0.00,,,0.00,WUHU216HW,2013-01-05 06:32:00,
2013-01-04 22:37:00,38.7,37.9,30.19,SSW,203,0.0,0.0,97,0.00,,,0.00,WUHU216HW,2013-01-05 06:37:00,
2013-01-04 22:42:00,38.7,37.9,30.19,SSW,203,0.0,0.0,97,0.00,,,0.00,WUHU216HW,2013-01-05 06:42:00,
2013-01-04 22:47:00,38.7,37.9,30.19,SSW,203,0.0,0.0,97,0.00,,,0.00,WUHU216HW,2013-01-05 06:47:00,
2013-01-04 22:52:00,38.5,37.7,30.18,SSW,203,0.0,0.0,97,0.00,,,0.00,WUHU216HW,2013-01-05 06:52:00,
2013-01-04 22:57:00,38.7,37.9,30.18,SSW,203,0.0,0.0,97,0.00,,,0.00,WUHU216HW,2013-01-05 06:57:00,
2013-01-04 23:02:00,38.7,37.9,30.18,SSW,203,0.0,0.0,97,0.00,,,0.00,WUHU216HW,2013-01-05 07:02:00,
2013-01-04 23:07:00,38.5,37.7,30.17,SSW,203,0.0,0.0,97,0.00,,,0.00,WUHU216HW,2013-01-05 07:07:00,
2013-01-04 23:12:00,38.7,37.9,30.17,SSW,203,0.0,0.0,97,0.00,,,0.00,WUHU216HW,2013-01-05 07:12:00,
2013-01-04 23:17:00,39.1,38.3,30.18,SSW,203,0.0,0.0,97,0.00,,,0.00,WUHU216HW,2013-01-05 07:17:00,
2013-01-04 23:22:00,39.1,38.3,30.17,SSW,203,0.0,0.0,97,0.00,,,0.00,WUHU216HW,2013-01-05 07:22:00,
2013-01-04 23:27:00,39.1,38.3,30.18,SSW,203,0.0,0.0,97,0.00,,,0.00,WUHU216HW,2013-01-05 07:27:00,
2013-01-04 23:32:00,38.9,38.1,30.17,SSW,203,0.0,0.0,97,0.00,,,0.00,WUHU216HW,2013-01-05 07:32:00,
2013-01-04 23:37:00,38.7,37.9,30.17,SSW,203,0.0,0.0,97,0.00,,,0.00,WUHU216HW,2013-01-05 07:37:00,
2013-01-04 23:42:00,38.5,37.7,30.18,SSW,203,0.0,0.0,97,0.00,,,0.00,WUHU216HW,2013-01-05 07:42:00,
2013-01-04 23:47:00,38.5,37.7,30.17,SSW,203,0.0,0.0,97,0.00,,,0.00,WUHU216HW,2013-01-05 07:47:00,
2013-01-04 23:53:00,38.5,37.7,30.17,SSW,203,0.0,0.0,97,0.00,,,0.00,WUHU216HW,2013-01-05 07:53:00,
2013-01-04 23:58:00,38.2,37.4,30.17,SSW,203,0.0,0.0,97,0.00,,,0.00,WUHU216HW,2013-01-05 07:58:00,